Location: Bad Salzschlirf
(50.3750°N, 9.3000°E)
Time: 22:01:13
(UTC+01:00)

ISS - Pass Details

Date: 03 November 2024
Orbit: 406 x 419 km, 51.6° (Epoch: 08 November)

Event Time Altitude Azimuth Distance (km) Brightness Sun altitude
Exits shadow 05:17:26 29° 185° (S) 775 -2.5 -19.4°
Drops below altitude 10° 05:19:44 10° 146° (SSE) 1,462 -0.6 -19.0°
Sets 05:21:55 0° 137° (SE) 2,319 0.7 -18.7°
